• In Belarus
  • List of Countries
  • For 7 days
  • Water Temperature
  • Satellite Maps
  • Weather Map
  • Weather Widgets
  • user-avatar
    Login

    Hourly Weather Qala i Naw

    Today, 26 May, Saturday

    Time Temperature Precipitation Wind Pressure Humidity
    00:00 +22°C° 0 mm 1 mps 680 mmHg 27%
    01:00 +21°C° 0 mm 1 mps 680 mmHg 28%
    02:00 +21°C° 0 mm 1 mps 680 mmHg 29%
    03:00 +20°C° 0 mm 1 mps 679 mmHg 30%
    04:00 +20°C° 0 mm 1 mps 679 mmHg 31%
    05:00 +22°C° 0 mm 1 mps 680 mmHg 28%
    06:00 +23°C° 0 mm 2 mps 680 mmHg 26%
    07:00 +25°C° 0 mm 2 mps 680 mmHg 24%
    08:00 +26°C° 0 mm 1 mps 681 mmHg 20%
    09:00 +28°C° 0 mm 1 mps 681 mmHg 17%
    10:00 +29°C° 0 mm 1 mps 681 mmHg 11%
    11:00 +30°C° 0 mm 1 mps 681 mmHg 9%
    12:00 +31°C° 0 mm 1 mps 681 mmHg 8%
    13:00 +32°C° 0 mm 2 mps 681 mmHg 7%
    14:00 +32°C° 0 mm 2 mps 680 mmHg 7%
    15:00 +32°C° 0 mm 2 mps 680 mmHg 7%
    16:00 +32°C° 0 mm 2 mps 680 mmHg 6%
    17:00 +31°C° 0 mm 2 mps 680 mmHg 9%
    18:00 +29°C° 0 mm 2 mps 680 mmHg 11%
    19:00 +27°C° 0 mm 1 mps 679 mmHg 14%
    20:00 +27°C° 0 mm 1 mps 679 mmHg 14%
    21:00 +26°C° 0 mm 2 mps 680 mmHg 14%
    22:00 +25°C° 0 mm 2 mps 680 mmHg 13%
    23:00 +25°C° 0 mm 2 mps 680 mmHg 13%

    Tomorrow, 27 May, Sunday

    Time Temperature Precipitation Wind Pressure Humidity
    00:00 +25°C° 0 mm 2 mps 680 mmHg 13%
    01:00 +24°C° 0 mm 2 mps 680 mmHg 13%
    02:00 +24°C° 0 mm 2 mps 680 mmHg 13%
    03:00 +23°C° 0 mm 2 mps 680 mmHg 13%
    04:00 +23°C° 0 mm 2 mps 680 mmHg 13%
    05:00 +25°C° 0 mm 2 mps 680 mmHg 12%
    06:00 +26°C° 0 mm 2 mps 681 mmHg 11%
    07:00 +28°C° 0 mm 2 mps 682 mmHg 10%
    08:00 +29°C° 0 mm 2 mps 682 mmHg 10%
    09:00 +31°C° 0 mm 2 mps 683 mmHg 10%
    10:00 +32°C° 0 mm 2 mps 683 mmHg 10%
    11:00 +34°C° 0 mm 3 mps 683 mmHg 10%
    12:00 +34°C° 0 mm 3 mps 683 mmHg 10%
    13:00 +35°C° 0 mm 4 mps 683 mmHg 11%
    14:00 +35°C° 0 mm 5 mps 683 mmHg 12%
    15:00 +35°C° 0 mm 6 mps 683 mmHg 13%
    16:00 +34°C° 0 mm 7 mps 683 mmHg 14%
    17:00 +33°C° 0 mm 7 mps 683 mmHg 19%
    18:00 +30°C° 0 mm 7 mps 683 mmHg 24%
    19:00 +29°C° 0 mm 7 mps 684 mmHg 29%
    20:00 +27°C° 0 mm 6 mps 684 mmHg 33%
    21:00 +26°C° 0 mm 5 mps 685 mmHg 38%
    22:00 +25°C° 0 mm 5 mps 685 mmHg 42%
    23:00 +23°C° 0 mm 4 mps 685 mmHg 44%

    Day after tomorrow, 28 May, Monday

    Time Temperature Precipitation Wind Pressure Humidity
    00:00 +22°C° 0 mm 4 mps 685 mmHg 46%
    01:00 +22°C° 0 mm 4 mps 686 mmHg 48%
    02:00 +21°C° 0 mm 4 mps 686 mmHg 48%
    03:00 +21°C° 0 mm 4 mps 686 mmHg 48%
    04:00 +20°C° 0 mm 4 mps 686 mmHg 48%
    05:00 +20°C° 0 mm 4 mps 686 mmHg 47%
    06:00 +20°C° 0 mm 5 mps 686 mmHg 47%
    07:00 +20°C° 0 mm 5 mps 686 mmHg 46%
    08:00 +21°C° 0 mm 5 mps 686 mmHg 44%
    09:00 +22°C° 0 mm 5 mps 686 mmHg 42%
    10:00 +23°C° 0 mm 5 mps 686 mmHg 40%
    11:00 +23°C° 0 mm 5 mps 686 mmHg 36%
    12:00 +25°C° 0 mm 5 mps 685 mmHg 32%
    13:00 +26°C° 0 mm 5 mps 685 mmHg 29%
    14:00 +26°C° 0 mm 5 mps 684 mmHg 26%
    15:00 +26°C° 0 mm 5 mps 684 mmHg 24%
    16:00 +26°C° 0 mm 5 mps 683 mmHg 21%
    17:00 +25°C° 0 mm 4 mps 683 mmHg 21%
    18:00 +23°C° 0 mm 4 mps 683 mmHg 21%
    19:00 +22°C° 0 mm 3 mps 683 mmHg 20%
    20:00 +21°C° 0 mm 3 mps 683 mmHg 21%
    21:00 +20°C° 0 mm 3 mps 682 mmHg 22%
    22:00 +20°C° 0 mm 3 mps 682 mmHg 22%
    23:00 +19°C° 0 mm 2 mps 682 mmHg 23%

    29 May, Tuesday

    Time Temperature Precipitation Wind Pressure Humidity
    00:00 +18°C° 0 mm 2 mps 681 mmHg 25%
    01:00 +19°C° 0 mm 1 mps 681 mmHg 26%
    02:00 +18°C° 0 mm 1 mps 680 mmHg 27%
    03:00 +16°C° 0 mm 1 mps 680 mmHg 28%
    04:00 +16°C° 0 mm 1 mps 680 mmHg 29%
    05:00 +18°C° 0 mm 1 mps 680 mmHg 26%
    06:00 +19°C° 0 mm 1 mps 680 mmHg 23%
    07:00 +21°C° 0 mm 1 mps 681 mmHg 20%
    08:00 +22°C° 0 mm 1 mps 681 mmHg 18%
    09:00 +24°C° 0 mm 2 mps 681 mmHg 16%
    10:00 +25°C° 0 mm 2 mps 681 mmHg 14%
    11:00 +26°C° 0 mm 3 mps 681 mmHg 13%
    12:00 +28°C° 0 mm 3 mps 681 mmHg 12%
    13:00 +29°C° 0 mm 4 mps 680 mmHg 10%
    14:00 +29°C° 0 mm 4 mps 680 mmHg 10%
    15:00 +29°C° 0 mm 5 mps 680 mmHg 10%
    16:00 +29°C° 0 mm 5 mps 680 mmHg 9%
    17:00 +28°C° 0 mm 4 mps 680 mmHg 11%
    18:00 +26°C° 0 mm 4 mps 681 mmHg 12%
    19:00 +25°C° 0 mm 4 mps 681 mmHg 13%
    20:00 +24°C° 0 mm 3 mps 681 mmHg 14%
    21:00 +22°C° 0 mm 3 mps 681 mmHg 15%
    22:00 +21°C° 0 mm 2 mps 682 mmHg 16%
    23:00 +21°C° 0 mm 2 mps 681 mmHg 16%

    30 May, Wednesday

    Time Temperature Precipitation Wind Pressure Humidity
    00:00 +20°C° 0 mm 2 mps 681 mmHg 16%
    01:00 +20°C° 0 mm 2 mps 681 mmHg 16%
    02:00 +19°C° 0 mm 2 mps 681 mmHg 17%
    03:00 +19°C° 0 mm 2 mps 681 mmHg 17%
    04:00 +18°C° 0 mm 2 mps 681 mmHg 17%
    05:00 +19°C° 0 mm 2 mps 681 mmHg 16%
    06:00 +21°C° 0 mm 2 mps 682 mmHg 15%
    07:00 +23°C° 0 mm 2 mps 682 mmHg 14%
    08:00 +24°C° 0 mm 3 mps 683 mmHg 14%
    09:00 +26°C° 0 mm 4 mps 683 mmHg 13%
    10:00 +27°C° 0 mm 5 mps 683 mmHg 12%
    11:00 +28°C° 0 mm 5 mps 683 mmHg 12%
    12:00 +29°C° 0 mm 6 mps 683 mmHg 12%
    13:00 +30°C° 0 mm 6 mps 683 mmHg 12%
    14:00 +30°C° 0 mm 6 mps 683 mmHg 12%
    15:00 +30°C° 0 mm 7 mps 683 mmHg 12%
    16:00 +30°C° 0 mm 7 mps 683 mmHg 12%
    17:00 +29°C° 0 mm 6 mps 683 mmHg 13%
    18:00 +27°C° 0 mm 5 mps 683 mmHg 14%
    19:00 +26°C° 0 mm 4 mps 683 mmHg 15%
    20:00 +25°C° 0 mm 4 mps 683 mmHg 16%
    21:00 +24°C° 0 mm 3 mps 683 mmHg 17%
    22:00 +22°C° 0 mm 3 mps 683 mmHg 19%
    23:00 +22°C° 0 mm 3 mps 683 mmHg 20%

    31 May, Thursday

    Time Temperature Precipitation Wind Pressure Humidity
    00:00 +21°C° 0 mm 2 mps 682 mmHg 21%
    01:00 +20°C° 0 mm 2 mps 682 mmHg 23%
    02:00 +20°C° 0 mm 2 mps 681 mmHg 23%
    03:00 +19°C° 0 mm 2 mps 681 mmHg 24%
    04:00 +19°C° 0 mm 2 mps 681 mmHg 25%
    05:00 +20°C° 0 mm 2 mps 682 mmHg 24%
    06:00 +21°C° 0 mm 2 mps 682 mmHg 22%
    07:00 +23°C° 0 mm 2 mps 683 mmHg 21%
    08:00 +24°C° 0 mm 3 mps 683 mmHg 20%
    09:00 +26°C° 0 mm 3 mps 683 mmHg 18%
    10:00 +27°C° 0 mm 3 mps 683 mmHg 17%
    11:00 +28°C° 0 mm 3 mps 683 mmHg 16%
    12:00 +29°C° 0 mm 3 mps 682 mmHg 15%
    13:00 +32°C° 0 mm 4 mps 682 mmHg 14%
    14:00 +32°C° 0 mm 4 mps 682 mmHg 14%
    15:00 +32°C° 0 mm 4 mps 681 mmHg 14%
    16:00 +33°C° 0 mm 4 mps 681 mmHg 14%
    17:00 +30°C° 0 mm 4 mps 681 mmHg 16%
    18:00 +29°C° 0 mm 3 mps 681 mmHg 17%
    19:00 +28°C° 0 mm 2 mps 681 mmHg 19%
    20:00 +27°C° 0 mm 2 mps 681 mmHg 20%
    21:00 +26°C° 0 mm 2 mps 681 mmHg 21%
    22:00 +25°C° 0 mm 2 mps 681 mmHg 22%
    23:00 +25°C° 0 mm 2 mps 681 mmHg 22%
    Show more